Martinsville, VA

10:05 AM EST on January 21, 2018 (GMT -0500)
Blue Ridge

Weather History for KMTV - December, 2012

Change the Weather History Date:

Monday, December 31, 2012

  Actual Average (KINT) Record (KINT)
Temperature  
Mean Temperature 34 °F -  
Max Temperature 46 °F 48 °F 78 °F (1984)
Min Temperature 23 °F 30 °F 4 °F (1983)
Degree Days  
Heating Degree Days 30    
Moisture  
Dew Point 22 °F    
Average Humidity 59    
Maximum Humidity 100    
Minimum Humidity 34    
Precipitation  
Precipitation 0.00 in - - ()
Sea Level Pressure  
Sea Level Pressure 30.24 in    
Wind  
Wind Speed 1 mph (SW)    
Max Wind Speed 6 mph    
Max Gust Speed -    
Visibility 10 miles    
Events      
Averages and records for this station are not official NWS values.
T = Trace of Precipitation, MM = Missing Value Source: NWS Daily Summary

Daily Weather History Graph

Daily Weather History Graph

Search for Another Location

Airport or City:

Trip Planner

Search our weather history database for the weather conditions in past years. The results will help you decide how hot, cold, wet, or windy it might be!

Date:

Astronomy

Dec. 31, 2012 Rise Set
Actual Time 7:32 AM EST 5:14 PM EST
Civil Twilight 7:03 AM EST 5:43 PM EST
Nautical Twilight 6:31 AM EST 6:15 PM EST
Astronomical Twilight 5:59 AM EST 6:47 PM EST
Moon 8:37 PM EST (12/31) 9:18 AM EST (12/31)
Length of Visible Light 10h 39m
Length of Day
9h 42m
Waning Gibbous, 90% of the Moon is Illuminated
Dec 31
Waning Gibbous
Jan 4
Last Quarter
Jan 11
New
Jan 18
First Quarter
Jan 26
Full

Hourly Weather History & Observations

Time (EST) Temp. Windchill Dew Point Humidity Pressure Visibility Wind Dir Wind Speed Gust Speed Precip Events Conditions
12:15 AM 26.6 °F - 19.4 °F 74% 30.36 in 10.0 mi Calm Calm - N/A   Clear
12:35 AM 24.8 °F - 19.4 °F 80% 30.35 in 10.0 mi Calm Calm - N/A   Clear
12:55 AM 24.8 °F - 17.6 °F 74% 30.36 in 10.0 mi Calm Calm - N/A   Clear
1:15 AM 24.8 °F - 19.4 °F 80% 30.35 in 10.0 mi Calm Calm - N/A   Clear
1:35 AM 23.0 °F - 19.4 °F 86% 30.34 in 10.0 mi Calm Calm - N/A   Clear
1:55 AM 23.0 °F - 19.4 °F 86% 30.35 in 10.0 mi Calm Calm - N/A   Clear
2:15 AM 24.8 °F - 19.4 °F 80% 30.34 in 10.0 mi Calm Calm - N/A   Clear
2:55 AM 23.0 °F - 19.4 °F 86% 30.34 in 10.0 mi Calm Calm - N/A   Clear
3:15 AM 23.0 °F - 19.4 °F 86% 30.35 in 10.0 mi Calm Calm - N/A   Clear
3:35 AM 23.0 °F - 19.4 °F 86% 30.35 in 10.0 mi Calm Calm - N/A   Clear
3:55 AM 23.0 °F - 19.4 °F 86% 30.34 in 10.0 mi Calm Calm - N/A   Clear
4:15 AM 23.0 °F - 19.4 °F 86% 30.34 in 10.0 mi Calm Calm - N/A   Clear
4:35 AM 24.8 °F - 19.4 °F 80% 30.33 in 10.0 mi Calm Calm - N/A   Clear
4:55 AM 24.8 °F - 21.2 °F 86% 30.33 in 10.0 mi Calm Calm - N/A   Clear
5:15 AM 24.8 °F - 21.2 °F 86% 30.33 in 10.0 mi Calm Calm - N/A   Clear
5:35 AM 24.8 °F - 21.2 °F 86% 30.33 in 10.0 mi Calm Calm - N/A   Clear
5:55 AM 23.0 °F - 21.2 °F 93% 30.32 in 10.0 mi Calm Calm - N/A   Clear
6:15 AM 23.0 °F - 23.0 °F 100% 30.31 in 10.0 mi Calm Calm - N/A   Clear
6:35 AM 24.8 °F - 21.2 °F 86% 30.31 in 10.0 mi Calm Calm - N/A   Clear
6:55 AM 24.8 °F - 21.2 °F 86% 30.31 in 10.0 mi Calm Calm - N/A   Clear
7:15 AM 26.6 °F - 23.0 °F 86% 30.32 in 10.0 mi Calm Calm - N/A   Clear
7:55 AM 26.6 °F - 23.0 °F 86% 30.32 in 10.0 mi Calm Calm - N/A   Clear
8:15 AM 26.6 °F - 24.8 °F 93% 30.32 in 10.0 mi Calm Calm - N/A   Clear
8:35 AM 28.4 °F - 24.8 °F 86% 30.32 in 10.0 mi Calm Calm - N/A   Clear
8:55 AM 30.2 °F - 26.6 °F 86% 30.32 in 10.0 mi Calm Calm - N/A   Clear
9:15 AM 35.6 °F - 24.8 °F 65% 30.32 in 10.0 mi Calm Calm - N/A   Clear
9:35 AM 35.6 °F - 24.8 °F 65% 30.32 in 10.0 mi Calm Calm - N/A   Clear
9:55 AM 35.6 °F - 24.8 °F 65% 30.32 in 10.0 mi Calm Calm - N/A   Clear
10:15 AM 39.2 °F 37.0 °F 21.2 °F 49% 30.31 in 10.0 mi South 3.5 mph - N/A   Clear
10:35 AM 39.2 °F 35.0 °F 19.4 °F 45% 30.30 in 10.0 mi SSW 5.8 mph - N/A   Clear
10:55 AM 41.0 °F 39.0 °F 17.6 °F 39% 30.30 in 10.0 mi South 3.5 mph - N/A   Clear
11:15 AM 41.0 °F - 19.4 °F 42% 30.29 in 10.0 mi Calm Calm - N/A   Clear
11:35 AM 41.0 °F - 19.4 °F 42% 30.28 in 10.0 mi Calm Calm - N/A   Clear
11:55 AM 42.8 °F 40.1 °F 19.4 °F 39% 30.27 in 10.0 mi SSW 4.6 mph - N/A   Clear
12:15 PM 42.8 °F - 19.4 °F 39% 30.24 in 10.0 mi Calm Calm - N/A   Clear
12:35 PM 42.8 °F 41.1 °F 17.6 °F 36% 30.22 in 10.0 mi SSW 3.5 mph - N/A   Clear
12:55 PM 42.8 °F - 19.4 °F 39% 30.20 in 10.0 mi Calm Calm - N/A   Clear
1:15 PM 44.6 °F - 19.4 °F 37% 30.20 in 10.0 mi Calm Calm - N/A   Clear
1:35 PM 44.6 °F 43.1 °F 19.4 °F 37% 30.20 in 10.0 mi SSW 3.5 mph - N/A   Clear
1:55 PM 44.6 °F 43.1 °F 19.4 °F 37% 30.20 in 10.0 mi South 3.5 mph - N/A   Clear
2:15 PM 46.4 °F 45.2 °F 19.4 °F 34% 30.17 in 10.0 mi South 3.5 mph - N/A   Clear
2:35 PM 46.4 °F 45.2 °F 19.4 °F 34% 30.18 in 10.0 mi South 3.5 mph - N/A   Clear
2:55 PM 46.4 °F 45.2 °F 21.2 °F 37% 30.19 in 10.0 mi SSW 3.5 mph - N/A   Clear
3:15 PM 46.4 °F - 21.2 °F 37% 30.18 in 10.0 mi Calm Calm - N/A   Clear
3:35 PM 46.4 °F - 21.2 °F 37% 30.18 in 10.0 mi Calm Calm - N/A   Scattered Clouds
3:55 PM 46.4 °F - 21.2 °F 37% 30.19 in 10.0 mi Calm Calm - N/A   Mostly Cloudy
4:15 PM 46.4 °F - 23.0 °F 40% 30.19 in 10.0 mi Calm Calm - N/A   Overcast
4:35 PM 46.4 °F 44.3 °F 21.2 °F 37% 30.18 in 10.0 mi WSW 4.6 mph - N/A   Overcast
4:55 PM 46.4 °F 44.3 °F 23.0 °F 40% 30.17 in 10.0 mi SSW 4.6 mph - N/A   Overcast
5:35 PM 44.6 °F 43.1 °F 21.2 °F 39% 30.18 in 10.0 mi SW 3.5 mph - N/A   Overcast
5:55 PM 44.6 °F 43.1 °F 21.2 °F 39% 30.18 in 10.0 mi SW 3.5 mph - N/A   Overcast
6:15 PM 44.6 °F 43.1 °F 23.0 °F 43% 30.16 in 10.0 mi SW 3.5 mph - N/A   Mostly Cloudy
6:35 PM 44.6 °F 42.2 °F 23.0 °F 43% 30.17 in 10.0 mi SW 4.6 mph - N/A   Mostly Cloudy
6:55 PM 44.6 °F 41.4 °F 23.0 °F 43% 30.17 in 10.0 mi SW 5.8 mph - N/A   Scattered Clouds
7:15 PM 44.6 °F 42.2 °F 23.0 °F 43% 30.16 in 10.0 mi SW 4.6 mph - N/A   Mostly Cloudy
7:35 PM 44.6 °F 42.2 °F 24.8 °F 46% 30.15 in 10.0 mi SW 4.6 mph - N/A   Mostly Cloudy
7:55 PM 44.6 °F - 24.8 °F 46% 30.14 in 10.0 mi Calm Calm - N/A   Scattered Clouds
8:15 PM 44.6 °F 43.1 °F 24.8 °F 46% 30.13 in 10.0 mi SW 3.5 mph - N/A   Clear
8:35 PM 44.6 °F - 24.8 °F 46% 30.13 in 10.0 mi Calm Calm - N/A   Clear
8:55 PM 44.6 °F 42.2 °F 24.8 °F 46% 30.12 in 10.0 mi SW 4.6 mph - N/A   Clear
9:15 PM 44.6 °F 43.1 °F 24.8 °F 46% 30.12 in 10.0 mi WSW 3.5 mph - N/A   Clear
9:35 PM 44.6 °F 42.2 °F 24.8 °F 46% 30.12 in 10.0 mi WSW 4.6 mph - N/A   Clear
10:15 PM 44.6 °F - 24.8 °F 46% 30.10 in 10.0 mi Calm Calm - N/A   Clear
10:35 PM 44.6 °F - 24.8 °F 46% 30.10 in 10.0 mi Calm Calm - N/A   Clear
10:55 PM 44.6 °F 43.1 °F 24.8 °F 46% 30.11 in 10.0 mi West 3.5 mph - N/A   Clear
11:15 PM 44.6 °F - 24.8 °F 46% 30.11 in 10.0 mi Calm Calm - N/A   Clear
11:35 PM 44.6 °F 43.1 °F 24.8 °F 46% 30.10 in 10.0 mi SW 3.5 mph - N/A   Clear